Simultaneous Nadir Overpasses (SNOs) Predictions

Prediction of SNOs between METOP-A and TERRA Satellite Orbit:

Table of predicted SNOs for the next 14.0 days since TLE Epoch: 12/7/2012
Index Date (METOP-A) Time (METOP-A) METOP-A Lat,Lon Date (TERRA) Time (TERRA) TERRA Lat,Lon Distance(km) Time Diff (sec)
1 12/09/2012 05:38:42 -81.34, -36.81 12/09/2012 05:38:44 -81.34, -36.63 2.93 2
2 12/09/2012 06:29:21 81.35, 131.25 12/09/2012 06:28:10 81.35, 131.14 1.73 71
3 12/12/2012 00:22:25 81.33,-138.15 12/12/2012 00:23:33 81.33,-138.05 1.83 68
4 12/12/2012 01:13:04 -81.34, 29.88 12/12/2012 01:12:59 -81.35, 29.89 0.50 5
5 12/14/2012 19:56:47 81.33, -71.81 12/14/2012 19:57:47 81.33, -71.61 3.30 60
6 12/14/2012 20:47:26 -81.34, 96.24 12/14/2012 20:47:13 -81.35, 96.35 1.97 13
7 12/17/2012 15:31:09 81.34, -5.00 12/17/2012 15:32:01 81.35, -4.86 2.58 52
8 12/17/2012 16:21:49 -81.34, 162.66 12/17/2012 16:21:28 -81.34, 162.74 1.39 21
9 12/20/2012 11:05:32 81.34, 61.48 12/20/2012 11:06:16 81.34, 61.45 0.47 44




NCC Satellite Simultaneous Nadir Overpasses (SNOs) Prediction Service
